Find Starlink 1051

NORAD ID: 44756 Int'l Des: 2019-074 Owner: SPXS Country: US Constellation: starlink decayed
LEOCIRCULAR

Re-entered — Dec 20, 2021

Loading 3D Globe...

About Starlink 1051

Starlink 1051 (NORAD 44756) is a starlink constellation satellite (v1.0) launched Nov 11, 2019 by SPXS of US. It re-entered the atmosphere on Dec 20, 2021. with a mass of 260.00 kg.

Altitude History

Loading altitude history...

Two-Line Element Set

1 44756U 19074AV 21354.31171645 .11367391 12138-4 26442-2 0 9990
2 44756 53.0268 163.8503 0005448 326.1844 36.6435 16.29058133118114
Epoch: Dec 20, 2021 • Age: 41038 hours

Current Status

Position data unavailable
Launch Date Nov 11, 2019
Age 6.7 years
Decay Date Dec 20, 2021
Type internet

Technical Details

Classification Payload
Mass 260.00 kg
Dry Mass 248.00 kg
Total Mass 260.00 kg
Length 0.20 m
Diameter 2.80 m
Span 9.00 m
Shape Box + pan
Manufacturer SPXS
Bus Type Starlink
Phase Status Unknown Transfer Status
Owner/State SPXS/US

Most Searched